^^
Grace C. Lehan Memorial Weather Station Historical Data
Daily Summary for August 25, 2021 Units:  English    Metric   Both
Daily Weekly Monthly Yearly
  High: Low: Average:
Temperature: 35 °F 28.3 °F 31.9 °F
Dew Point: 33.7 °F 25.5 °F 30.2 °F
Humidity: 95.3% 89% 93%
Wind Speed: 1.7mph 0mph 0.1mph
Wind Gust: 4mph - -
Wind- - NE
Pressure: 29.92 in 29.46 in -
Precipitation: 0.05 in    
 
 
Tabular Data for August 25, 2021
Time Temperature Dew Point Pressure Wind Wind Speed Wind Gust Humidity Rainfall Rate (Hourly) solar
00:04 28.4 °F 25.6 °F 29.92 in Calm     89% 0.00 in 0 W/m2
00:09 28.5 °F 25.6 °F 29.92 in Calm     89% 0.00 in 0 W/m2
00:14 28.5 °F 25.7 °F 29.91 in Calm     89% 0.00 in 0 W/m2
00:19 28.5 °F 25.7 °F 29.90 in Calm     89% 0.00 in 0 W/m2
00:24 28.5 °F 25.7 °F 29.90 in Calm     89% 0.00 in 0 W/m2
00:29 28.5 °F 25.6 °F 29.90 in Calm     89% 0.00 in 0 W/m2
00:34 28.5 °F 25.7 °F 29.89 in Calm     89% 0.00 in 0 W/m2
00:39 28.5 °F 25.7 °F 29.89 in Calm     89% 0.00 in 0 W/m2
00:44 28.5 °F 25.7 °F 29.89 in Calm     89% 0.00 in 0 W/m2
00:49 28.4 °F 25.6 °F 29.89 in Calm     89% 0.00 in 0 W/m2
00:54 28.4 °F 25.6 °F 29.88 in Calm     89% 0.00 in 0 W/m2
00:59 28.3 °F 25.5 °F 29.90 in Calm   1 mph 89% 0.00 in 0 W/m2
01:04 28.3 °F 25.5 °F 29.90 in Calm   1 mph 89% 0.00 in 0 W/m2
01:09 28.3 °F 25.5 °F 29.90 in Calm     89% 0.00 in 0 W/m2
01:14 28.3 °F 25.5 °F 29.91 in Calm     89.1% 0.00 in 0 W/m2
01:19 28.3 °F 25.7 °F 29.91 in Calm     90% 0.00 in 0 W/m2
01:24 28.3 °F 25.8 °F 29.91 in Calm     90% 0.00 in 0 W/m2
01:29 28.3 °F 25.8 °F 29.90 in Calm     90% 0.00 in 0 W/m2
01:34 28.3 °F 25.8 °F 29.90 in Calm     90% 0.00 in 0 W/m2
01:39 28.3 °F 25.8 °F 29.89 in Calm     90% 0.00 in 0 W/m2
01:44 28.3 °F 25.8 °F 29.89 in Calm     90% 0.00 in 0 W/m2
01:49 28.4 °F 25.8 °F 29.89 in Calm     90% 0.00 in 0 W/m2
01:54 28.4 °F 25.9 °F 29.89 in Calm     90% 0.00 in 0 W/m2
01:59 28.4 °F 25.9 °F 29.89 in Calm     90% 0.00 in 0 W/m2
02:04 28.5 °F 26 °F 29.88 in Calm     90% 0.00 in 0 W/m2
02:09 28.5 °F 26 °F 29.88 in Calm     90% 0.00 in 0 W/m2
02:14 28.6 °F 26 °F 29.88 in Calm     90% 0.00 in 0 W/m2
02:19 28.6 °F 26.1 °F 29.87 in Calm     90% 0.00 in 0 W/m2
02:24 28.7 °F 26.1 °F 29.87 in Calm     90% 0.00 in 0 W/m2
02:29 28.7 °F 26.2 °F 29.87 in Calm     90% 0.00 in 0 W/m2
02:34 28.8 °F 26.2 °F 29.87 in Calm     90% 0.00 in 0 W/m2
02:39 28.8 °F 26.2 °F 29.86 in Calm     90% 0.00 in 0 W/m2
02:44 28.8 °F 26.3 °F 29.86 in Calm     90% 0.00 in 0 W/m2
02:49 28.8 °F 26.2 °F 29.84 in Calm     90% 0.00 in 0 W/m2
02:54 28.8 °F 26.2 °F 29.84 in Calm     90% 0.00 in 0 W/m2
02:59 28.8 °F 26.2 °F 29.83 in Calm     90% 0.00 in 0 W/m2
03:04 28.7 °F 26.2 °F 29.83 in Calm     90% 0.00 in 0 W/m2
03:09 28.7 °F 26.1 °F 29.83 in Calm     90% 0.00 in 0 W/m2
03:14 28.7 °F 26.1 °F 29.83 in Calm     90% 0.00 in 0 W/m2
03:19 28.8 °F 26.2 °F 29.83 in Calm     90% 0.00 in 0 W/m2
03:24 28.8 °F 26.2 °F 29.83 in Calm     90% 0.00 in 0 W/m2
03:29 28.8 °F 26.2 °F 29.82 in Calm     90% 0.00 in 0 W/m2
03:34 28.8 °F 26.2 °F 29.82 in Calm     90% 0.00 in 0 W/m2
03:39 28.8 °F 26.2 °F 29.81 in Calm     90% 0.00 in 0 W/m2
03:44 28.8 °F 26.2 °F 29.81 in Calm     90% 0.00 in 0 W/m2
03:49 28.8 °F 26.2 °F 29.80 in Calm     90% 0.00 in 0 W/m2
03:54 28.8 °F 26.2 °F 29.80 in Calm     90% 0.00 in 0 W/m2
03:59 28.7 °F 26.2 °F 29.79 in Calm     90% 0.00 in 0 W/m2
04:00 28.7 °F 26.1 °F 29.79 in Calm     90% 0.00 in 0 W/m2
04:09 28.7 °F 26.1 °F 29.78 in Calm     90% 0.00 in 0 W/m2
04:14 28.7 °F 26.1 °F 29.78 in Calm     90% 0.00 in 0 W/m2
04:19 28.7 °F 26.2 °F 29.78 in Calm     90% 0.00 in 0 W/m2
04:24 28.8 °F 26.2 °F 29.78 in Calm     90% 0.00 in 0 W/m2
04:29 28.7 °F 26.1 °F 29.77 in Calm     90% 0.00 in 0 W/m2
04:34 28.7 °F 26.2 °F 29.78 in Calm     90% 0.00 in 0 W/m2
04:39 28.8 °F 26.2 °F 29.77 in Calm     90% 0.00 in 0 W/m2
04:44 28.9 °F 26.6 °F 29.77 in Calm     90.9% 0.00 in 0 W/m2
04:49 29 °F 26.7 °F 29.77 in Calm     91% 0.00 in 0 W/m2
04:54 29 °F 26.7 °F 29.77 in Calm     91% 0.00 in 0 W/m2
04:59 29 °F 26.7 °F 29.77 in Calm     91% 0.00 in 0 W/m2
05:04 29.1 °F 26.8 °F 29.76 in NE 1.6 mph 4 mph 91% 0.00 in 0 W/m2
05:09 29.1 °F 26.6 °F 29.76 in NE 0.1 mph 4 mph 90.2% 0.00 in 0 W/m2
05:14 29.1 °F 26.5 °F 29.76 in NE 0.5 mph 4 mph 90% 0.00 in 0 W/m2
05:19 29.1 °F 26.5 °F 29.76 in Calm   4 mph 90% 0.00 in 0 W/m2
05:24 29.1 °F 26.5 °F 29.76 in NE 0.1 mph 4 mph 90% 0.00 in 0 W/m2
05:29 29.1 °F 26.5 °F 29.75 in Calm   4 mph 90% 0.00 in 0 W/m2
05:34 29.1 °F 26.5 °F 29.75 in Calm   4 mph 90% 0.00 in 0 W/m2
05:39 29 °F 26.4 °F 29.74 in Calm   1 mph 90% 0.00 in 0 W/m2
05:44 29 °F 26.4 °F 29.73 in Calm   1 mph 90% 0.00 in 0 W/m2
05:49 29 °F 26.7 °F 29.72 in NE 0.6 mph 2 mph 90.8% 0.00 in 0 W/m2
05:54 29.1 °F 26.8 °F 29.72 in NE 1.7 mph 3 mph 91% 0.00 in 0 W/m2
05:59 29.1 °F 26.8 °F 29.71 in NE 1.1 mph 3 mph 91% 0.00 in 0 W/m2
06:04 29.1 °F 26.8 °F 29.71 in NE 0.9 mph 3 mph 91% 0.00 in 0 W/m2
06:09 29.1 °F 26.8 °F 29.70 in Calm   3 mph 91% 0.00 in 0 W/m2
06:14 29.1 °F 26.8 °F 29.70 in Calm   3 mph 91% 0.00 in 0 W/m2
06:19 29.1 °F 26.8 °F 29.70 in Calm   3 mph 91% 0.00 in 0 W/m2
06:24 29.1 °F 26.8 °F 29.71 in Calm   3 mph 91% 0.00 in 0 W/m2
06:29 29.1 °F 26.8 °F 29.71 in NE 0.3 mph 3 mph 91% 0.00 in 0 W/m2
06:34 29.2 °F 26.9 °F 29.71 in NE 0.3 mph 3 mph 91% 0.00 in 0 W/m2
06:39 29.2 °F 26.9 °F 29.70 in Calm   2 mph 91% 0.00 in 0 W/m2
06:44 29.3 °F 27.1 °F 29.70 in Calm   2 mph 91.4% 0.00 in 0 W/m2
06:49 29.5 °F 27.5 °F 29.70 in Calm   2 mph 92% 0.00 in 0 W/m2
06:54 29.6 °F 27.6 °F 29.70 in Calm   2 mph 92% 0.00 in 0 W/m2
06:59 29.7 °F 27.7 °F 29.70 in NE 0.3 mph 3 mph 92% 0.00 in 0 W/m2
07:04 29.8 °F 27.8 °F 29.70 in NE 0.2 mph 3 mph 92% 0.00 in 0 W/m2
07:09 29.9 °F 27.9 °F 29.70 in Calm   3 mph 92% 0.00 in 0 W/m2
07:14 30 °F 28.1 °F 29.69 in NE 0.5 mph 3 mph 92.4% 0.00 in 0 W/m2
07:19 30.1 °F 28.2 °F 29.70 in NE 1.1 mph 3 mph 92.5% 0.00 in 0 W/m2
07:24 30 °F 28 °F 29.69 in NE 0.3 mph 3 mph 92.1% 0.01 in 0 W/m2
07:29 30.1 °F 28.3 °F 29.69 in NE 0.2 mph 3 mph 92.8% 0.02 in 0 W/m2
07:34 30.2 °F 28.4 °F 29.69 in NE 0.2 mph 3 mph 93% 0.03 in 0 W/m2
07:39 30.3 °F 28.5 °F 29.69 in Calm   2 mph 93% 0.04 in 0 W/m2
07:44 30.3 °F 28.5 °F 29.68 in Calm   2 mph 93% 0.05 in 0 W/m2
07:49 30.4 °F 28.7 °F 29.68 in Calm   2 mph 93% 0.05 in 0 W/m2
07:54 30.5 °F 28.7 °F 29.68 in Calm   2 mph 93% 0.05 in 0 W/m2
07:59 30.5 °F 28.7 °F 29.67 in Calm   2 mph 93% 0.05 in 5 W/m2
08:00 30.5 °F 28.7 °F 29.67 in Calm   2 mph 93% 0.05 in 5 W/m2
08:09 30.6 °F 28.8 °F 29.67 in NE 0.1 mph 2 mph 93% 0.05 in 7 W/m2
08:14 30.7 °F 28.9 °F 29.66 in Calm   2 mph 93% 0.05 in 9 W/m2
08:19 30.7 °F 28.9 °F 29.66 in Calm   2 mph 93% 0.05 in 11 W/m2
08:24 30.8 °F 29 °F 29.65 in Calm   2 mph 93% 0.05 in 11 W/m2
08:29 31 °F 29.2 °F 29.65 in Calm   2 mph 93% 0.05 in 11 W/m2
08:34 31.1 °F 29.3 °F 29.65 in Calm   2 mph 93% 0.05 in 14 W/m2
08:39 31.1 °F 29.3 °F 29.65 in NE 0.3 mph 3 mph 93% 0.03 in 19 W/m2
08:44 31.1 °F 29.3 °F 29.65 in Calm   3 mph 93% 0.03 in 19 W/m2
08:49 31.1 °F 29.3 °F 29.64 in NE 0.1 mph 3 mph 93% 0.03 in 18 W/m2
08:54 31.1 °F 29.3 °F 29.64 in Calm   3 mph 93% 0.03 in 19 W/m2
08:59 31.2 °F 29.5 °F 29.64 in Calm   3 mph 93.5% 0.03 in 18 W/m2
09:04 31.3 °F 29.8 °F 29.63 in Calm   3 mph 94% 0.03 in 25 W/m2
09:09 31.4 °F 29.9 °F 29.63 in Calm     94% 0.00 in 21 W/m2
09:14 31.4 °F 29.9 °F 29.62 in Calm     94% 0.00 in 25 W/m2
09:19 31.4 °F 29.9 °F 29.62 in Calm     94% 0.00 in 33 W/m2
09:24 31.5 °F 30 °F 29.62 in Calm     94% 0.00 in 37 W/m2
09:29 31.6 °F 30.1 °F 29.62 in Calm     94% 0.00 in 40 W/m2
09:34 31.7 °F 30.1 °F 29.61 in Calm     94% 0.00 in 47 W/m2
09:39 31.8 °F 30.3 °F 29.61 in Calm     94% 0.00 in 44 W/m2
09:44 31.9 °F 30.4 °F 29.61 in Calm     94% 0.00 in 44 W/m2
09:49 31.9 °F 30.4 °F 29.60 in Calm     94% 0.00 in 39 W/m2
09:54 32 °F 30.8 °F 29.60 in Calm     95.3% 0.00 in 56 W/m2
09:59 32.1 °F 30.8 °F 29.60 in Calm     94.8% 0.00 in 54 W/m2
10:04 32.2 °F 30.7 °F 29.60 in Calm     94% 0.00 in 33 W/m2
10:09 32.3 °F 30.8 °F 29.60 in Calm     94% 0.00 in 32 W/m2
10:14 32.3 °F 30.8 °F 29.60 in Calm     94% 0.00 in 23 W/m2
10:19 32.4 °F 30.8 °F 29.59 in Calm     94% 0.00 in 19 W/m2
10:24 32.5 °F 31 °F 29.59 in Calm     94% 0.00 in 19 W/m2
10:29 32.7 °F 31.2 °F 29.59 in Calm     94% 0.00 in 25 W/m2
10:34 32.8 °F 31.3 °F 29.58 in Calm     94% 0.00 in 28 W/m2
10:39 32.8 °F 31.3 °F 29.57 in Calm     94% 0.00 in 30 W/m2
10:44 32.8 °F 31.3 °F 29.57 in Calm     94% 0.00 in 26 W/m2
10:49 32.7 °F 31.2 °F 29.56 in Calm     94% 0.00 in 37 W/m2
10:54 32.7 °F 31.2 °F 29.56 in Calm     94% 0.00 in 40 W/m2
10:59 32.8 °F 31.3 °F 29.55 in Calm     94% 0.00 in 40 W/m2
11:04 32.8 °F 31.3 °F 29.55 in Calm     94% 0.00 in 30 W/m2
11:09 32.8 °F 31.3 °F 29.55 in Calm     94% 0.00 in 26 W/m2
11:14 32.9 °F 31.4 °F 29.55 in Calm     94% 0.00 in 23 W/m2
11:19 33 °F 31.5 °F 29.54 in Calm     94% 0.00 in 23 W/m2
11:24 33 °F 31.5 °F 29.54 in Calm     94% 0.00 in 32 W/m2
11:29 33.1 °F 31.5 °F 29.54 in NE 0.1 mph 1 mph 94% 0.00 in 35 W/m2
11:34 33.1 °F 31.6 °F 29.53 in Calm   1 mph 94% 0.00 in 23 W/m2
11:39 33.2 °F 31.7 °F 29.53 in Calm     94% 0.00 in 23 W/m2
11:44 33.2 °F 31.7 °F 29.53 in Calm     94% 0.00 in 19 W/m2
11:49 33.2 °F 31.7 °F 29.53 in Calm     94% 0.00 in 21 W/m2
11:54 33.2 °F 31.7 °F 29.52 in Calm     94% 0.00 in 26 W/m2
11:59 33.3 °F 31.7 °F 29.53 in Calm     94% 0.00 in 26 W/m2
12:00 33.3 °F 31.8 °F 29.53 in Calm     94% 0.00 in 19 W/m2
12:09 33.4 °F 31.9 °F 29.53 in Calm     94% 0.00 in 19 W/m2
12:14 33.4 °F 31.9 °F 29.53 in Calm     94% 0.00 in 18 W/m2
12:19 33.5 °F 31.9 °F 29.52 in Calm     94% 0.00 in 26 W/m2
12:24 33.5 °F 32 °F 29.51 in NE 0.4 mph 3 mph 94% 0.00 in 46 W/m2
12:29 33.5 °F 32 °F 29.51 in NE 0.4 mph 4 mph 94% 0.00 in 65 W/m2
12:34 33.5 °F 32 °F 29.50 in Calm   4 mph 94% 0.00 in 65 W/m2
12:39 33.5 °F 32 °F 29.50 in NE 0.3 mph 2 mph 94% 0.00 in 60 W/m2
12:44 33.5 °F 32 °F 29.50 in NE 0.2 mph 3 mph 94% 0.00 in 62 W/m2
12:49 33.6 °F 32.1 °F 29.50 in Calm   3 mph 94% 0.00 in 49 W/m2
12:54 33.6 °F 32.1 °F 29.50 in Calm   3 mph 94% 0.00 in 47 W/m2
12:59 33.6 °F 32.1 °F 29.49 in Calm   3 mph 94% 0.00 in 58 W/m2
13:04 33.7 °F 32.2 °F 29.49 in Calm   3 mph 94% 0.00 in 58 W/m2
13:09 33.7 °F 32.2 °F 29.49 in Calm     94% 0.00 in 51 W/m2
13:14 33.7 °F 32.2 °F 29.48 in Calm     94% 0.00 in 56 W/m2
13:19 33.8 °F 32.3 °F 29.48 in Calm     94% 0.00 in 44 W/m2
13:24 33.8 °F 32.3 °F 29.48 in Calm     94% 0.00 in 40 W/m2
13:29 33.8 °F 32.3 °F 29.48 in Calm     94% 0.00 in 47 W/m2
13:34 33.9 °F 32.3 °F 29.48 in Calm     94% 0.00 in 63 W/m2
13:39 33.9 °F 32.4 °F 29.47 in Calm     94% 0.00 in 54 W/m2
13:44 34 °F 32.5 °F 29.47 in Calm     94% 0.00 in 81 W/m2
13:49 34.1 °F 32.5 °F 29.47 in Calm     94% 0.00 in 81 W/m2
13:54 34.1 °F 32.5 °F 29.48 in Calm     94% 0.00 in 37 W/m2
13:59 33.9 °F 32.4 °F 29.47 in Calm     94% 0.00 in 46 W/m2
14:04 33.9 °F 32.4 °F 29.47 in Calm     94% 0.00 in 42 W/m2
14:09 33.9 °F 32.4 °F 29.47 in Calm     94% 0.00 in 47 W/m2
14:14 33.9 °F 32.4 °F 29.47 in Calm     94% 0.00 in 67 W/m2
14:19 34 °F 32.5 °F 29.47 in Calm     94% 0.00 in 83 W/m2
14:24 34.1 °F 32.5 °F 29.46 in Calm     94% 0.00 in 83 W/m2
14:29 34.2 °F 32.9 °F 29.46 in Calm     94.9% 0.00 in 69 W/m2
14:34 34.2 °F 32.9 °F 29.46 in Calm     95% 0.00 in 63 W/m2
14:39 34.3 °F 33 °F 29.46 in Calm     95% 0.00 in 53 W/m2
14:44 34.3 °F 33 °F 29.46 in Calm     95% 0.00 in 39 W/m2
14:49 34.3 °F 33 °F 29.46 in Calm     95% 0.00 in 42 W/m2
14:54 34.3 °F 33 °F 29.46 in Calm     95% 0.00 in 40 W/m2
14:59 34.3 °F 33 °F 29.46 in Calm     95% 0.00 in 39 W/m2
15:04 34.3 °F 33 °F 29.46 in Calm     95% 0.00 in 39 W/m2
15:09 34.4 °F 33.1 °F 29.46 in Calm     95% 0.00 in 37 W/m2
15:14 34.3 °F 33.1 °F 29.46 in Calm     95% 0.00 in 28 W/m2
15:19 34.3 °F 33 °F 29.46 in Calm     95% 0.00 in 40 W/m2
15:24 34.4 °F 33.1 °F 29.47 in Calm     95% 0.00 in 40 W/m2
15:29 34.4 °F 33.1 °F 29.47 in Calm     95% 0.00 in 28 W/m2
15:34 34.4 °F 33.2 °F 29.46 in Calm     95% 0.00 in 30 W/m2
15:39 34.5 °F 33.2 °F 29.46 in Calm     95% 0.00 in 32 W/m2
15:44 34.5 °F 33.2 °F 29.47 in Calm     95% 0.00 in 30 W/m2
15:49 34.5 °F 32.9 °F 29.47 in Calm     94.1% 0.00 in 25 W/m2
15:54 34.4 °F 32.9 °F 29.47 in Calm     94% 0.00 in 16 W/m2
15:59 34.4 °F 32.9 °F 29.47 in Calm     94% 0.00 in 9 W/m2
16:00 34.5 °F 32.9 °F 29.47 in Calm     94% 0.00 in 0 W/m2
16:09 34.4 °F 32.9 °F 29.47 in Calm     94.1% 0.00 in 5 W/m2
16:14 34.4 °F 33.1 °F 29.48 in Calm     94.8% 0.00 in 0 W/m2
16:19 34.4 °F 33.1 °F 29.48 in Calm     95% 0.00 in 0 W/m2
16:24 34.4 °F 33.1 °F 29.48 in Calm     95% 0.00 in 0 W/m2
16:29 34.3 °F 33 °F 29.48 in Calm     95% 0.00 in 0 W/m2
16:34 34.3 °F 33 °F 29.48 in Calm     95% 0.00 in 0 W/m2
16:39 34.3 °F 33 °F 29.48 in Calm     95% 0.00 in 0 W/m2
16:44 34.3 °F 33 °F 29.47 in Calm     95% 0.00 in 0 W/m2
16:49 34.3 °F 33 °F 29.48 in Calm     95% 0.00 in 0 W/m2
16:54 34.3 °F 33 °F 29.49 in Calm     95% 0.00 in 0 W/m2
16:59 34.3 °F 33 °F 29.49 in Calm     95% 0.00 in 0 W/m2
17:04 34.3 °F 33 °F 29.49 in Calm     95% 0.00 in 0 W/m2
17:09 34.2 °F 32.9 °F 29.49 in Calm     95% 0.00 in 0 W/m2
17:14 34.2 °F 32.9 °F 29.49 in Calm     95% 0.00 in 0 W/m2
17:19 34.2 °F 32.9 °F 29.49 in Calm     95% 0.00 in 0 W/m2
17:24 34.2 °F 32.9 °F 29.49 in Calm     95% 0.00 in 0 W/m2
17:29 34.2 °F 32.9 °F 29.49 in Calm     95% 0.00 in 0 W/m2
17:34 34.2 °F 32.9 °F 29.49 in Calm     95% 0.00 in 0 W/m2
17:39 34.2 °F 33 °F 29.49 in Calm     95% 0.00 in 0 W/m2
17:44 34.3 °F 33 °F 29.50 in Calm     95% 0.00 in 0 W/m2
17:49 34.3 °F 33 °F 29.50 in Calm     95% 0.00 in 0 W/m2
17:54 34.3 °F 33 °F 29.49 in Calm     95% 0.00 in 0 W/m2
17:59 34.3 °F 33 °F 29.50 in Calm     95% 0.00 in 0 W/m2
18:04 34.3 °F 33 °F 29.49 in Calm     95% 0.00 in 0 W/m2
18:09 34.3 °F 33 °F 29.50 in Calm     95% 0.00 in 0 W/m2
18:14 34.3 °F 33 °F 29.50 in Calm     95% 0.00 in 0 W/m2
18:19 34.3 °F 33 °F 29.49 in Calm     95% 0.00 in 0 W/m2
18:20 34.3 °F 33 °F 29.49 in Calm     95% 0.00 in 0 W/m2
18:29 34.3 °F 33 °F 29.50 in Calm     95% 0.00 in 0 W/m2
18:34 34.3 °F 33 °F 29.50 in Calm     95% 0.00 in 0 W/m2
18:39 34.3 °F 33 °F 29.50 in Calm     95% 0.00 in 0 W/m2
18:44 34.3 °F 33 °F 29.50 in Calm     95% 0.00 in 0 W/m2
18:49 34.3 °F 33.1 °F 29.50 in Calm     95% 0.00 in 0 W/m2
18:54 34.3 °F 33 °F 29.50 in Calm     95% 0.00 in 0 W/m2
18:59 34.3 °F 33 °F 29.49 in Calm     95% 0.00 in 0 W/m2
19:04 34.4 °F 33.1 °F 29.50 in Calm     95% 0.00 in 0 W/m2
19:09 34.4 °F 33.1 °F 29.51 in Calm     95% 0.00 in 0 W/m2
19:14 34.4 °F 33.1 °F 29.52 in Calm     95% 0.00 in 0 W/m2
19:19 34.4 °F 33.1 °F 29.52 in Calm     95% 0.00 in 0 W/m2
19:24 34.3 °F 33 °F 29.52 in Calm     95% 0.00 in 0 W/m2
19:29 34.3 °F 33 °F 29.52 in Calm     95% 0.00 in 0 W/m2
19:34 34.3 °F 33 °F 29.52 in Calm     95% 0.00 in 0 W/m2
19:39 34.4 °F 33.1 °F 29.52 in Calm     95% 0.00 in 0 W/m2
19:44 34.4 °F 33.1 °F 29.52 in Calm     95% 0.00 in 0 W/m2
19:49 34.4 °F 33.1 °F 29.52 in Calm     95% 0.00 in 0 W/m2
19:54 34.5 °F 33.2 °F 29.52 in Calm     95% 0.00 in 0 W/m2
19:58 34.5 °F 33.2 °F 29.52 in Calm     95% 0.00 in 0 W/m2
20:04 34.5 °F 33.2 °F 29.52 in Calm     95% 0.00 in 0 W/m2
20:09 34.5 °F 33.2 °F 29.52 in Calm     95% 0.00 in 0 W/m2
20:14 34.6 °F 33.3 °F 29.52 in Calm     95% 0.00 in 0 W/m2
20:19 34.7 °F 33.4 °F 29.51 in Calm     95% 0.00 in 0 W/m2
20:24 34.7 °F 33.5 °F 29.51 in Calm     95% 0.00 in 0 W/m2
20:29 34.8 °F 33.5 °F 29.51 in NE 0.2 mph 3 mph 95% 0.00 in 0 W/m2
20:34 34.8 °F 33.5 °F 29.51 in NE 0.2 mph 3 mph 95% 0.00 in 0 W/m2
20:39 34.8 °F 33.5 °F 29.52 in Calm   2 mph 95% 0.00 in 0 W/m2
20:44 34.8 °F 33.5 °F 29.52 in NE 0.4 mph 2 mph 95% 0.00 in 0 W/m2
20:49 34.8 °F 33.5 °F 29.51 in NE 0.4 mph 3 mph 95% 0.00 in 0 W/m2
20:54 34.8 °F 33.5 °F 29.51 in NE 0.4 mph 4 mph 95% 0.00 in 0 W/m2
20:59 34.8 °F 33.5 °F 29.51 in NE 0.2 mph 4 mph 95% 0.00 in 0 W/m2
21:04 34.8 °F 33.5 °F 29.51 in Calm   4 mph 95% 0.00 in 0 W/m2
21:09 34.8 °F 33.5 °F 29.51 in Calm     95% 0.00 in 0 W/m2
21:14 34.8 °F 33.6 °F 29.51 in NE 0.2 mph 3 mph 95% 0.00 in 0 W/m2
21:19 34.8 °F 33.6 °F 29.52 in Calm   3 mph 95% 0.00 in 0 W/m2
21:24 34.9 °F 33.6 °F 29.53 in NE 0.2 mph 3 mph 95% 0.00 in 0 W/m2
21:29 34.9 °F 33.6 °F 29.53 in NE 0.3 mph 3 mph 95% 0.00 in 0 W/m2
21:34 34.9 °F 33.6 °F 29.52 in Calm   3 mph 95% 0.00 in 0 W/m2
21:39 34.9 °F 33.6 °F 29.52 in Calm     95% 0.00 in 0 W/m2
21:44 35 °F 33.7 °F 29.52 in Calm     95% 0.00 in 0 W/m2
21:49 35 °F 33.7 °F 29.52 in NE 0.1 mph 2 mph 95% 0.00 in 0 W/m2
21:54 35 °F 33.7 °F 29.53 in NE 0.2 mph 3 mph 95% 0.00 in 0 W/m2
21:59 35 °F 33.7 °F 29.53 in Calm   3 mph 95% 0.00 in 0 W/m2
22:03 35 °F 33.7 °F 29.53 in Calm   3 mph 95% 0.00 in 0 W/m2
Hartford County Weather
Compliments of Weather Underground - 2 mb